Tracking 30970 objects as of 3-Jul-2025
HD Live streaming from Space Station
objects crossing your sky now

COSMOS 516

Track COSMOS 516 now!
10-day predictions
COSMOS 516 is classified as:


NORAD ID: 6154
Int'l Code: 1972-066A
Perigee: 921.1 km
Apogee: 1,036.7 km
Inclination: 64.8 °
Period: 104.5 minutes
Semi major axis: 7349 km
RCS: 3.1093 m2 (large)
Launch date: August 21, 1972
Source: Commonwealth of Independent States (former USSR) (CIS)
Launch site: TYURATAM MISSILE AND SPACE COMPLEX (TTMTR)
Your satellite tracking list
NOAA 16 DEB
Track 1 satellite(s)




NASA's NSSDC Master Catalog

Two Line Element Set (TLE):
1 06154U 72066A   25183.93035369 -.00000067  00000-0  21525-4 0  9997
2 06154  64.8114  11.6582 0078649 208.9078 150.7610 13.77791675659804
Source of the keplerian elements: AFSPC